Wind_Speed
33 34 34 34 34 34 35 36 37 36 35 34 32 31 31 30 29 28 25 25 26 26 24 24 23 21 19 19 19 20 20 17 16 18 18 20 23 24 26 27 27 26 27 28 29 30 32 32 32 30 28 28 29 29 28 27 26 26 25 25 24 24 24 25 26 27 28 29 30 31 32 33 33 34 34 35 35 36 37 38 39 39 39 38 38 38
33 33 34 35 35 36 36 36 36 35 35 36 34 33 33 32 31 29 27 28 29 28 26 26 26 23 20 21 21 21 22 20 19 20 20 21 23 25 27 29 30 29 28 29 30 31 33 33 32 31 29 29 29 30 29 27 26 25 25 24 24 24 24 25 26 27 29 30 31 32 33 34 34 35 35 36 36 37 38 39 40 40 39 38 38 38
33 34 35 36 35 35 35 34 35 36 37 37 36 35 34 33 33 32 30 30 30 29 28 28 29 25 22 23 23 23 23 22 22 22 22 23 25 27 28 29 30 31 31 31 32 33 33 33 32 31 30 30 30 30 30 28 26 25 25 24 24 25 25 26 27 28 29 31 31 32 34 34 35 35 36 37 38 39 40 41 40 40 38 37 37 37
33 35 35 35 35 35 35 36 37 37 37 37 37 36 35 35 35 34 33 32 31 32 31 30 30 27 24 24 25 24 24 24 24 25 25 25 27 28 29 30 32 32 33 33 33 34 33 32 32 32 32 31 31 31 31 30 28 26 26 26 26 26 27 28 29 30 30 31 32 33 34 35 35 36 37 39 39 40 41 41 40 39 37 36 36 36
34 35 36 35 35 36 37 37 37 37 37 38 38 38 37 37 37 36 35 35 35 34 34 33 32 30 26 26 26 24 24 26 27 27 27 27 28 29 30 33 34 34 35 34 34 34 34 33 33 33 32 32 32 32 32 31 30 28 27 28 28 28 29 29 30 31 31 32 33 34 35 36 37 38 39 40 40 40 40 40 39 38 37 35 35 35
35 35 36 35 36 37 38 37 37 37 37 38 39 39 40 40 39 38 39 39 38 37 36 35 35 32 29 27 26 25 25 27 29 29 28 28 28 30 32 34 36 37 37 35 34 34 34 35 35 33 32 32 33 33 32 32 31 29 28 29 29 30 30 31 32 32 32 33 34 36 37 37 38 39 40 40 40 40 40 39 39 38 36 35 34 34
36 35 34 34 35 37 38 38 38 38 38 39 40 40 41 42 41 41 42 42 41 40 37 36 37 36 31 28 27 26 26 28 29 30 29 29 29 31 33 35 37 38 38 37 35 35 35 35 34 33 33 33 33 33 33 33 32 31 29 29 30 31 31 32 33 34 35 36 37 38 38 39 39 40 40 40 40 40 40 39 39 38 36 35 34 33
36 35 34 33 35 37 39 39 39 39 39 40 41 41 41 42 43 44 44 44 43 42 40 39 39 39 34 29 27 28 28 30 30 30 31 31 31 32 34 36 37 37 37 37 37 36 36 35 33 33 33 34 34 33 33 33 33 32 31 30 30 31 32 33 35 36 37 39 39 39 40 40 40 41 41 41 40 40 40 40 39 38 36 35 34 33
38 37 36 35 36 38 39 40 41 40 41 41 42 42 42 43 45 45 45 45 45 45 43 42 42 42 37 31 30 29 30 31 31 32 33 33 33 34 35 36 37 37 37 38 38 37 35 34 33 34 34 34 34 33 33 34 33 33 32 31 31 32 33 34 36 37 39 40 41 41 41 42 43 42 42 42 41 40 40 40 40 38 37 35 34 33
40 39 39 38 38 38 39 40 40 41 42 42 43 43 43 44 45 46 46 46 47 47 45 44 44 44 39 34 34 34 33 33 33 34 35 35 35 36 37 37 37 37 38 38 37 35 33 33 34 34 34 34 33 33 34 34 34 33 33 33 33 34 35 36 37 39 40 40 41 42 43 44 44 44 44 43 41 40 40 40 40 38 37 35 34 33
42 41 41 40 39 39 39 40 40 40 41 42 43 43 44 45 45 46 47 47 48 48 46 46 46 46 42 35 34 37 37 36 37 38 38 38 39 40 39 39 39 38 38 37 35 33 33 34 34 34 33 33 33 33 34 34 34 34 34 34 35 35 36 38 39 40 40 41 42 43 44 44 45 45 45 44 41 40 40 40 40 39 37 36 34 33
43 42 42 41 41 40 40 41 40 41 41 41 42 43 43 44 44 45 47 48 49 49 48 48 48 48 44 37 36 40 40 39 40 41 41 42 44 44 42 41 41 40 38 37 35 34 34 35 34 33 32 32 33 33 34 34 34 34 35 35 36 37 38 39 40 41 41 42 43 44 44 45 45 45 44 44 42 41 40 40 40 39 38 36 34 33
42 42 42 42 42 42 42 42 42 42 42 42 42 42 42 42 43 44 45 47 48 48 48 49 50 49 43 38 40 43 42 41 42 43 45 46 47 46 44 43 43 43 42 40 38 37 36 36 35 33 32 32 33 34 34 33 34 35 35 36 37 37 39 40 41 41 42 42 43 44 44 44 44 44 44 43 42 41 41 41 41 40 38 36 35 33
43 43 43 43 43 43 43 43 43 42 42 42 41 41 41 41 43 44 44 45 46 46 47 49 50 48 42 39 40 42 43 43 44 45 47 48 48 47 44 43 43 43 44 42 40 39 38 37 37 35 34 34 35 35 34 33 35 35 35 35 37 37 39 40 41 42 43 43 43 44 44 44 43 43 43 43 42 41 41 41 41 41 39 37 35 34
44 44 43 42 43 43 43 43 43 43 42 42 42 42 42 41 43 43 44 44 44 44 45 46 47 45 41 39 39 39 40 41 43 45 46 47 48 47 45 44 43 43 43 42 40 39 39 40 39 37 36 37 37 36 34 34 36 36 36 36 37 38 39 41 43 43 44 43 43 43 43 43 42 42 42 41 41 40 40 42 42 41 39 37 35 34
44 44 43 42 42 42 43 44 44 44 44 43 43 44 44 42 43 43 44 44 44 44 44 43 44 42 40 39 39 38 38 39 42 43 44 44 45 45 45 44 43 43 42 41 41 41 41 41 39 39 39 39 39 38 36 36 37 37 37 38 38 40 41 43 44 45 45 44 44 43 43 42 41 41 40 40 40 39 40 41 42 42 40 38 36 35
45 45 44 43 42 42 42 43 44 44 43 43 43 44 44 43 43 43 44 43 44 46 45 43 43 40 38 38 37 36 37 39 40 41 41 42 43 43 43 43 43 43 42 41 42 42 42 41 40 40 41 41 41 40 39 39 39 39 40 40 41 42 43 44 46 46 46 45 45 44 43 42 41 40 40 39 39 39 40 41 41 41 40 38 37 36
47 46 46 46 44 43 43 43 44 44 44 44 44 44 43 43 44 43 44 44 45 47 46 43 42 39 37 36 34 33 35 36 38 40 42 43 43 44 42 42 43 43 42 43 43 42 42 41 41 41 42 43 42 42 42 42 42 42 43 43 43 44 45 46 47 47 47 46 45 44 43 42 41 40 40 40 41 40 40 40 41 40 39 38 37 37
50 49 49 49 47 45 44 44 45 45 45 46 45 44 43 43 44 43 44 44 45 46 46 42 41 41 38 35 34 34 35 36 38 40 41 43 44 44 42 42 43 43 44 44 44 43 42 41 42 42 43 44 44 44 44 44 43 44 45 45 46 46 46 47 47 47 47 46 45 44 43 42 41 41 41 41 41 40 39 40 40 40 39 38 38 37
51 50 50 50 49 47 47 47 47 47 46 46 45 44 43 43 44 44 45 45 44 46 47 44 44 43 38 35 35 36 37 38 40 41 42 44 45 43 41 42 44 45 46 47 45 44 43 43 43 44 46 47 47 47 46 45 45 45 46 47 48 47 46 45 46 46 46 45 44 42 41 41 41 41 41 41 41 39 38 39 40 39 39 39 39 38
52 52 52 52 52 51 50 48 47 45 45 45 45 45 45 44 45 46 47 47 46 48 49 49 49 44 37 36 38 40 40 41 42 44 45 46 46 43 41 41 44 47 48 47 45 44 44 45 46 47 48 48 49 49 48 47 47 47 49 50 51 49 46 44 44 44 43 41 39 38 38 38 39 40 40 41 40 38 37 38 39 39 39 39 39 39
52 52 52 52 53 52 50 48 46 45 45 45 45 46 46 45 46 47 49 50 49 50 50 51 53 46 38 37 39 41 42 43 45 46 45 45 45 44 44 43 44 47 48 46 45 44 45 47 48 48 48 49 49 49 49 49 48 49 50 52 53 51 46 43 43 42 40 37 35 35 35 35 36 37 38 39 39 38 36 37 39 40 40 40 40 40
48 50 51 52 54 54 52 50 50 49 49 48 48 48 48 49 50 51 52 51 51 53 51 52 55 48 38 38 40 41 43 45 47 47 45 44 44 44 45 45 46 49 48 46 46 46 47 49 50 50 48 48 50 51 51 51 50 50 50 51 52 49 44 42 41 41 38 35 34 33 33 33 33 33 35 37 38 37 36 36 38 39 40 41 41 41
50 52 54 55 56 56 55 54 53 52 52 52 52 51 51 52 53 53 53 52 54 55 53 54 57 51 41 40 42 44 46 47 47 46 45 46 46 46 46 47 50 51 49 47 48 49 49 50 51 51 49 48 50 52 53 52 52 51 50 49 48 46 43 41 40 39 37 34 32 31 31 31 31 32 34 36 37 37 36 36 37 39 41 42 42 42
51 53 53 54 55 57 58 57 56 56 55 54 53 51 51 52 52 53 53 54 56 55 53 56 60 54 46 44 45 46 49 49 49 48 47 47 47 47 48 49 51 51 49 48 49 52 53 53 52 52 50 48 50 53 54 53 52 51 48 47 47 46 43 40 38 38 36 34 32 31 30 30 31 32 33 34 35 36 36 36 37 38 41 42 43 43
50 51 52 53 56 59 60 59 58 55 53 53 52 51 51 50 51 52 53 54 56 56 54 59 61 56 50 49 49 49 49 50 50 51 50 49 48 49 50 51 51 51 50 50 52 55 55 55 54 54 52 49 49 52 55 53 50 48 46 46 46 46 43 40 38 36 35 34 32 30 30 30 30 31 32 33 34 36 37 37 37 39 41 43 44 44
52 52 53 54 57 59 59 57 56 54 53 53 53 53 52 51 50 51 54 57 59 58 58 60 60 58 54 51 51 51 50 51 51 52 52 51 50 50 51 51 51 52 53 54 56 57 57 56 56 55 54 52 51 52 53 51 48 45 45 45 45 45 43 40 38 36 35 33 32 30 30 30 31 31 31 32 34 35 37 38 39 40 41 43 44 44
55 55 55 56 56 57 56 55 56 57 56 56 55 54 54 53 52 53 57 60 59 60 63 60 57 58 57 52 51 51 51 52 52 52 54 53 52 52 52 53 54 56 57 58 59 59 57 56 54 54 54 55 54 52 50 48 45 44 44 43 43 43 42 41 39 37 35 34 32 31 31 31 31 31 32 33 34 35 36 38 40 41 43 44 45 45
57 58 57 57 57 57 56 56 56 58 59 59 58 57 56 55 56 57 60 61 59 62 65 59 56 60 59 54 53 53 52 52 52 52 54 55 55 55 56 58 59 59 60 60 59 58 55 53 52 53 55 56 55 52 49 46 44 44 43 43 42 41 42 42 41 39 37 36 34 34 34 34 33 33 34 35 35 36 37 39 40 42 44 45 46 47
59 59 58 58 59 58 57 57 58 58 60 61 61 60 59 58 59 61 62 62 61 63 64 60 60 62 59 57 57 54 52 53 52 54 56 58 59 59 60 61 61 61 61 59 57 56 54 52 53 55 57 56 54 52 48 46 45 45 44 43 42 42 42 43 42 40 40 39 38 38 38 38 37 37 37 38 39 39 40 41 42 43 45 46 47 48
60 60 59 59 60 61 60 59 59 60 61 62 63 63 63 62 63 64 64 63 63 65 64 62 64 62 56 56 57 54 53 55 56 57 59 60 61 62 61 61 62 61 60 59 58 56 55 55 57 57 57 55 53 51 49 47 46 45 45 44 43 43 44 44 43 42 42 42 42 41 41 41 41 41 41 42 43 43 43 44 45 45 46 47 48 49
62 62 61 61 64 64 61 60 62 62 61 63 65 65 65 66 67 67 66 65 65 66 65 65 67 62 55 57 58 56 57 59 59 61 62 62 61 61 59 60 61 61 60 59 59 58 57 58 58 57 56 53 51 51 51 50 48 47 46 45 44 44 44 44 44 44 44 44 44 44 44 44 44 45 45 46 46 46 46 47 47 48 48 49 50 51
63 63 63 63 66 65 62 62 63 64 65 67 67 65 65 67 68 69 69 68 67 67 67 68 68 64 60 62 63 61 61 61 59 60 61 60 59 58 57 59 61 61 60 59 59 59 59 59 57 55 53 52 52 52 52 52 50 48 47 46 45 45 45 46 46 46 46 46 46 46 46 46 47 47 48 48 48 49 49 49 49 49 49 50 51 53
63 63 63 63 65 65 63 63 65 67 70 70 66 63 64 67 68 69 70 70 68 68 69 69 68 66 64 63 62 60 60 59 58 58 59 59 58 58 60 61 62 61 59 59 60 60 60 58 55 53 52 52 53 53 53 53 51 50 49 47 46 46 46 47 48 49 48 48 48 48 49 49 49 49 50 50 50 51 51 51 51 50 50 51 52 53
62 62 63 63 64 64 62 63 67 70 71 68 63 62 63 65 66 68 69 68 67 66 66 66 64 62 59 57 57 58 58 59 59 59 59 60 60 60 62 62 62 61 61 61 61 60 58 56 54 54 55 55 55 54 54 53 52 51 49 48 47 47 47 49 50 51 51 51 51 51 51 52 52 52 52 52 52 53 53 52 52 51 51 51 52 53
62 62 62 62 64 64 64 66 69 70 68 64 60 59 60 61 62 64 65 63 60 60 60 60 59 57 56 56 57 58 59 60 60 59 60 62 62 61 61 61 61 62 62 61 60 59 58 56 56 56 57 57 56 55 54 53 53 52 50 49 49 48 49 50 52 53 54 53 54 54 54 55 55 55 55 55 54 53 53 52 52 51 52 52 52 53
61 61 61 62 63 63 64 67 67 67 65 62 58 55 56 57 59 60 62 60 57 56 58 59 59 58 58 59 59 58 58 59 59 58 59 60 58 58 58 59 59 60 60 60 59 59 58 58 58 58 58 57 56 55 54 53 52 51 50 50 50 50 51 52 53 55 56 55 56 56 57 57 58 58 57 56 55 53 52 53 53 53 53 53 54 54
62 62 61 62 62 61 61 62 63 65 65 60 54 53 55 58 58 58 62 61 56 55 58 58 58 59 59 59 58 55 56 58 57 56 56 54 53 55 56 56 57 57 57 57 57 57 57 58 58 58 58 57 56 55 55 54 53 51 51 51 51 52 53 54 56 57 57 57 58 59 59 60 59 59 58 58 57 56 55 55 55 55 55 56 56 57
64 63 62 62 62 60 60 61 62 65 63 57 54 55 57 60 59 60 64 62 55 54 55 54 55 57 56 56 54 53 55 57 54 53 54 54 54 55 55 54 55 55 55 55 56 56 57 58 59 60 59 58 57 57 56 55 54 52 51 51 52 53 54 56 57 58 59 59 60 61 62 62 61 60 59 59 59 59 58 58 58 57 57 57 57 58
65 64 63 64 63 62 62 62 63 63 60 56 56 58 60 62 62 63 65 61 54 54 54 52 55 57 55 55 55 55 56 55 52 52 55 55 55 55 55 55 57 57 57 58 58 58 59 60 60 60 60 59 58 57 57 56 55 53 53 53 54 55 57 58 59 60 61 62 63 63 63 62 61 60 59 59 59 59 59 60 59 59 58 58 57 58
65 64 63 64 64 63 64 65 66 65 60 56 57 60 62 65 67 66 65 61 57 58 57 55 58 60 58 59 60 58 57 56 54 54 56 56 56 56 56 57 58 59 59 59 59 60 60 61 60 59 58 58 57 57 56 56 56 56 57 58 58 59 60 60 61 62 63 63 63 63 62 60 59 58 57 57 58 59 60 60 60 60 60 59 59 59
64 64 63 62 62 63 64 64 66 66 61 56 57 60 62 67 68 66 64 62 61 61 60 60 61 63 63 62 61 59 59 58 57 57 57 57 57 58 58 58 59 60 60 60 60 61 61 61 61 59 58 57 57 57 57 57 57 59 61 62 62 62 62 61 62 63 63 62 61 60 58 57 56 55 56 57 58 59 60 61 62 62 62 62 63 63
60 60 61 61 60 60 60 61 64 64 59 54 54 56 59 62 62 59 59 61 62 63 63 63 62 61 62 62 60 60 60 58 58 58 58 59 59 60 60 61 61 61 61 62 62 62 62 62 61 60 59 59 59 59 59 60 61 62 64 64 64 63 62 61 62 62 61 60 59 57 55 55 57 59 61 63 65 65 66 66 67 67 68 69 69 70
57 57 59 60 60 58 57 57 58 57 53 51 53 55 58 60 59 58 60 61 62 63 63 63 62 62 63 63 62 62 62 61 60 59 59 60 61 62 63 63 63 63 63 63 64 64 63 63 62 62 62 61 61 62 62 63 64 64 64 63 62 61 61 61 62 61 61 59 57 56 58 61 64 68 70 71 71 71 71 72 72 72 72 73 73 73
60 57 57 58 58 57 56 54 53 51 51 53 55 57 59 59 59 59 60 59 59 60 61 61 63 64 65 66 66 65 64 64 63 62 61 61 61 62 64 64 65 65 65 65 65 65 64 64 64 63 62 62 61 62 62 63 64 64 63 62 61 61 61 61 61 61 61 60 60 62 66 69 72 73 74 73 73 73 72 72 72 72 71 71 71 70
63 61 61 61 60 60 59 58 56 56 55 54 53 53 54 54 54 54 54 54 55 56 58 60 62 63 64 65 65 63 63 62 63 64 64 63 63 63 64 64 65 66 66 66 66 65 65 65 64 64 62 61 61 61 62 62 63 63 64 63 63 63 63 63 64 64 65 67 69 72 74 75 75 75 74 74 73 73 72 71 70 69 68 67 66 65
68 67 67 66 65 65 63 61 59 59 58 56 54 54 55 55 54 53 53 53 53 53 55 57 58 59 60 60 60 59 59 59 60 61 62 61 61 61 60 61 61 62 63 64 64 64 64 64 64 64 63 63 63 64 65 65 66 67 68 68 69 69 70 70 71 72 73 74 75 76 76 75 75 74 74 73 72 71 70 69 68 66 65 64 62 61
70 71 71 70 69 69 67 65 64 65 64 62 60 60 62 62 62 60 59 59 58 58 57 58 58 58 59 58 59 59 59 59 59 60 60 60 60 59 59 59 59 59 60 62 63 63 64 64 65 65 66 66 67 69 70 70 71 73 74 74 75 76 76 77 77 77 77 77 76 76 75 74 73 72 71 70 68 66 65 65 64 63 62 61 59 58
59 62 64 65 67 68 68 68 68 68 68 67 66 67 68 68 68 68 67 67 67 67 66 66 65 65 65 65 65 65 64 63 64 64 64 64 63 64 64 64 64 64 65 66 67 68 69 69 71 71 72 73 74 75 76 76 77 78 79 79 80 80 79 79 78 77 76 76 75 73 73 71 70 68 67 65 64 64 64 64 62 61 59 59 59 59
55 54 55 56 60 62 64 65 65 65 65 67 68 69 69 68 68 68 68 69 69 70 70 68 68 68 70 72 73 73 72 70 71 72 72 71 71 71 72 72 73 73 73 73 73 73 73 73 74 75 76 77 78 79 79 79 79 79 79 79 79 79 78 77 77 76 75 74 73 72 70 69 67 65 65 65 65 65 65 63 61 59 59 60 60 61
62 60 57 57 59 61 61 62 63 63 63 63 64 66 67 67 65 64 64 65 65 65 65 64 63 63 65 67 69 71 71 72 72 74 74 74 74 75 75 75 75 75 74 73 73 72 72 72 72 73 74 74 75 76 76 76 77 77 77 77 77 77 77 76 76 75 74 73 71 69 67 66 65 65 65 66 66 66 64 62 61 60 61 62 63 66
Wind_Direction
227 226 226 225 224 224 224 224 225 225 225 226 228 230 232 234 238 240 238 239 241 242 242 244 243 241 244 251 256 263 268 269 272 277 285 293 298 302 305 307 310 313 314 315 317 318 318 318 319 319 318 315 315 316 318 315 309 304 301 299 298 297 296 293 293 293 293 294 296 297 298 299 300 302 303 304 304 305 306 306 307 307 307 308 308 306
228 227 227 226 226 226 226 227 228 228 227 228 229 231 233 236 239 241 241 242 244 245 245 247 248 244 245 250 255 261 267 270 272 276 282 287 293 297 300 304 307 309 311 312 315 316 316 316 316 316 316 314 313 315 316 314 308 303 300 299 297 296 296 296 295 295 295 296 297 298 299 300 301 302 303 303 304 305 305 305 305 305 305 306 305 304
229 228 228 227 228 228 229 229 230 230 229 230 231 233 235 237 240 243 243 244 247 249 249 250 251 247 245 251 256 261 266 269 273 277 282 286 291 294 296 300 303 306 309 310 312 313 313 313 314 314 314 312 312 313 314 312 307 301 298 297 296 297 299 300 298 298 298 298 299 300 301 302 303 303 303 303 303 304 304 304 303 303 304 304 303 302
231 230 230 229 230 231 231 230 232 232 232 233 234 235 237 239 241 244 246 247 249 252 252 252 252 251 248 250 255 259 265 270 273 276 280 286 291 293 296 299 301 304 306 308 309 310 310 311 311 312 311 310 310 311 311 310 305 299 295 294 296 299 301 301 300 300 300 300 301 302 302 303 303 303 302 302 302 302 302 302 302 302 304 304 303 301
232 232 231 231 231 232 233 232 234 235 234 235 236 237 239 240 242 244 247 249 250 252 255 256 256 254 250 250 252 256 263 269 272 275 279 285 289 292 296 297 299 302 303 305 307 308 308 309 309 309 308 306 307 308 309 307 305 300 294 292 294 297 299 301 301 301 302 302 303 303 303 302 302 302 301 302 302 302 301 302 302 302 304 304 302 300
233 233 233 233 233 235 236 236 236 237 238 238 238 239 241 242 243 245 248 250 252 252 255 259 261 259 253 251 252 255 260 265 269 274 278 282 286 290 293 295 298 300 300 302 304 305 305 306 306 305 304 304 304 305 306 305 303 300 294 290 291 294 297 300 300 301 302 303 303 303 303 302 301 301 301 301 302 302 301 302 302 302 303 302 301 300
235 236 236 236 237 238 239 239 239 240 240 241 240 241 243 244 245 246 248 250 253 254 256 259 262 263 259 254 256 259 261 262 265 270 276 280 284 288 290 293 295 296 298 300 301 301 301 302 302 302 301 301 302 303 303 302 301 299 294 289 289 292 296 299 300 302 303 303 304 303 303 302 302 301 300 301 302 301 301 302 301 301 301 300 299 298
238 239 239 238 239 240 241 241 242 242 243 243 242 242 244 246 248 248 249 251 253 255 257 258 261 265 264 260 259 262 263 264 266 270 275 278 282 285 287 289 290 292 294 297 298 298 298 298 299 299 299 299 300 301 300 300 300 297 292 289 288 291 296 298 300 302 303 304 304 303 302 302 301 301 300 300 301 301 301 301 300 300 299 298 297 295
239 240 239 238 239 240 241 242 243 244 244 244 245 245 246 247 249 250 251 252 254 255 257 259 261 265 267 268 269 267 265 266 269 273 276 278 282 283 284 285 287 290 293 294 295 295 295 296 297 297 298 298 299 299 298 299 298 295 291 289 289 291 295 297 300 302 304 304 304 303 302 301 301 301 300 300 300 300 300 299 299 298 297 296 294 292
240 241 241 240 240 241 242 244 245 246 247 247 248 249 249 249 250 252 254 254 256 256 258 260 261 264 267 271 274 273 271 271 273 276 278 280 282 282 283 285 287 289 291 291 290 291 293 294 295 295 295 296 297 297 297 298 297 294 290 288 289 291 294 297 299 302 303 303 303 302 302 301 302 301 300 299 299 298 298 298 298 297 295 293 292 290
241 241 242 242 242 243 244 246 247 248 249 250 251 252 252 252 252 254 255 256 257 257 258 260 262 265 268 270 272 274 276 278 279 281 283 284 285 284 285 287 289 290 290 289 288 290 292 293 293 293 293 294 295 295 296 296 296 293 289 287 289 291 293 296 299 301 302 302 302 301 301 302 302 301 299 298 297 296 295 296 296 295 293 291 290 288
243 243 243 243 244 244 245 246 248 249 250 251 252 253 254 255 255 255 256 257 258 258 260 262 263 264 266 270 275 277 278 281 284 287 288 289 289 289 291 292 293 293 291 290 291 293 293 292 292 291 291 293 294 294 295 295 294 290 287 287 288 290 293 296 298 300 302 302 302 301 301 302 302 300 298 296 295 294 294 295 295 293 291 289 288 286
245 245 244 244 244 244 245 246 247 249 251 252 254 255 257 258 258 258 258 258 259 260 261 263 264 264 266 270 274 277 281 284 287 288 288 289 289 291 294 295 295 295 293 293 294 294 293 293 292 291 293 294 294 294 295 294 292 288 287 287 289 291 294 296 298 301 302 302 302 302 303 302 300 299 296 295 294 294 294 294 293 292 289 287 286 284
244 245 244 244 244 244 245 246 248 250 252 254 256 257 258 259 260 260 260 260 260 261 261 263 265 266 268 270 271 275 281 284 285 285 286 287 289 291 293 292 292 292 292 292 293 293 293 292 292 293 295 295 294 294 295 293 290 288 288 289 289 291 293 296 298 300 301 302 302 302 302 301 299 297 295 294 294 293 293 292 291 290 288 286 284 282
244 245 245 245 244 245 246 247 248 250 252 254 255 257 257 259 261 262 262 262 263 263 262 263 265 268 270 272 272 274 277 279 281 281 283 286 289 290 290 289 289 289 289 290 291 291 291 291 292 294 295 294 294 295 294 292 290 290 290 289 290 291 293 296 298 300 301 301 301 301 301 301 299 297 295 294 293 292 291 290 290 289 287 285 282 279
246 247 247 246 246 246 247 248 250 251 253 255 256 257 259 261 263 264 264 266 266 265 264 263 265 267 271 273 274 276 276 276 277 279 282 284 286 287 287 288 289 288 288 289 290 290 290 291 293 294 293 293 294 295 294 293 291 291 291 290 291 292 294 296 298 300 300 299 298 299 300 300 298 296 294 293 292 291 290 289 289 288 286 283 280 277
247 248 248 248 248 248 249 250 251 252 253 254 255 258 260 261 261 262 263 264 265 265 266 266 267 269 271 272 274 276 277 277 278 280 281 282 282 283 285 287 287 287 288 289 289 288 289 290 291 291 292 293 294 295 295 294 293 292 291 292 293 294 296 297 298 299 298 297 296 297 297 297 296 294 293 292 291 290 289 288 287 286 284 281 278 276
248 248 248 248 248 248 249 250 251 252 253 254 256 258 259 259 260 260 261 262 264 266 268 270 271 271 271 271 273 273 273 276 278 280 280 281 281 281 282 284 284 285 287 287 287 287 288 289 289 290 291 292 293 294 294 293 293 293 294 294 295 296 297 298 298 297 296 295 295 295 294 293 293 292 291 291 290 289 288 287 286 284 282 279 277 275
249 250 250 249 249 249 250 250 252 254 255 257 258 258 258 259 261 261 262 264 265 267 269 270 271 270 269 271 274 273 273 274 274 274 276 278 278 279 281 283 283 284 284 284 285 286 287 288 289 291 292 292 292 291 291 291 293 295 295 295 295 295 296 297 296 294 293 293 292 292 291 290 290 290 290 289 289 288 287 287 285 282 279 277 275 274
250 251 251 251 251 251 250 251 253 256 257 257 258 258 259 260 262 262 263 264 266 267 269 269 267 267 270 273 274 274 274 274 274 275 276 275 275 277 280 282 283 282 281 282 283 285 287 288 290 292 292 293 293 292 292 293 295 296 296 296 295 295 296 296 294 292 291 291 290 290 288 288 289 289 289 289 288 287 286 286 284 280 277 275 274 273
248 250 251 252 252 252 252 254 255 256 256 256 257 258 259 260 261 262 263 263 263 264 267 267 267 267 270 273 274 275 275 275 276 276 275 276 278 280 280 279 280 279 279 280 282 284 287 289 291 292 292 293 294 294 295 296 297 299 298 297 296 296 297 297 294 292 292 291 291 289 288 288 288 289 289 289 288 287 286 285 283 280 276 274 273 273
250 251 252 253 253 254 255 255 254 253 253 254 255 257 259 260 260 259 260 261 261 262 264 265 267 269 271 273 274 276 277 276 274 273 274 276 279 280 280 278 277 276 277 280 282 284 286 288 289 290 291 293 294 295 295 296 298 299 299 297 296 296 298 297 294 293 293 293 292 290 289 290 289 289 288 288 287 286 285 285 284 280 277 274 273 274
248 250 251 252 253 254 254 253 252 252 253 254 255 257 259 260 260 259 260 261 260 261 262 263 266 270 273 275 275 274 273 271 271 272 274 276 277 276 277 277 275 275 277 281 284 286 287 288 288 289 291 293 293 294 295 297 299 299 298 296 294 295 296 295 293 292 293 293 293 293 292 291 289 288 288 287 286 284 283 284 283 281 279 276 274 274
245 247 248 250 251 251 252 252 252 253 254 256 258 259 259 259 260 259 259 259 257 259 263 264 267 272 275 273 272 271 270 269 269 271 273 273 273 273 274 275 275 276 279 284 287 289 289 288 289 290 291 292 294 295 297 299 300 299 297 295 293 294 294 293 292 292 293 294 295 295 294 291 290 289 288 287 286 284 282 282 282 281 279 277 275 275
246 247 248 249 250 251 252 253 254 256 258 258 258 258 257 258 258 257 257 257 257 261 266 265 267 273 275 271 269 266 265 266 268 269 270 271 272 273 273 273 274 278 282 286 288 289 289 290 290 290 289 291 296 297 297 297 297 297 295 294 294 295 295 293 292 293 294 296 296 296 294 292 291 289 288 288 287 284 282 280 280 280 278 277 276 276
243 244 245 246 248 251 253 255 257 258 257 256 256 256 255 254 255 256 256 255 257 262 263 262 267 273 273 270 267 265 264 266 267 268 269 270 271 272 272 273 276 281 284 285 287 287 288 290 290 290 290 293 296 295 295 295 296 295 293 293 294 295 295 294 293 293 295 296 297 296 294 293 291 290 290 289 288 286 284 282 280 279 278 278 277 278
241 242 243 245 248 251 253 255 255 254 252 252 253 253 252 251 251 253 253 254 260 263 260 261 267 271 271 270 268 267 267 267 267 268 270 270 270 271 273 277 280 282 283 284 285 286 288 289 290 291 293 295 294 292 293 293 294 293 294 294 295 295 295 295 295 295 296 297 297 296 295 294 292 291 291 290 288 287 286 284 282 279 278 278 278 279
241 242 243 245 247 249 251 252 252 252 251 251 251 250 250 250 250 251 252 256 262 260 259 263 266 266 269 269 266 266 267 268 269 271 272 273 273 274 277 279 281 282 283 284 285 286 287 289 290 292 293 293 293 292 292 292 292 293 294 295 294 295 296 295 294 294 296 297 298 296 295 294 293 291 290 288 286 286 285 284 282 281 280 279 279 279
242 243 243 245 246 247 248 249 250 252 252 252 251 249 249 250 250 252 254 258 260 259 261 265 263 262 268 269 266 266 268 269 272 274 275 276 277 278 280 281 282 283 283 284 285 286 287 289 290 290 291 291 292 293 292 291 291 292 293 294 295 295 295 294 293 294 296 297 297 296 296 295 294 292 290 288 286 285 284 283 281 281 280 280 280 280
245 245 245 246 247 247 246 247 248 251 252 253 253 252 251 251 252 254 256 258 259 259 262 264 262 263 268 269 268 269 271 273 274 274 275 276 277 278 279 281 282 283 283 284 284 285 287 288 289 289 289 290 291 292 291 291 290 290 292 293 294 294 294 293 294 296 296 297 297 296 297 297 296 295 293 290 288 287 286 285 282 281 280 279 279 279
249 249 247 248 250 248 245 246 247 249 251 253 254 254 254 254 254 255 256 257 258 260 262 264 264 266 270 271 271 273 275 275 274 274 273 274 275 277 278 280 281 282 282 283 284 285 287 288 287 288 287 288 289 290 289 289 288 289 291 293 293 294 294 295 296 296 296 296 296 296 296 296 295 295 294 293 291 289 288 287 285 283 281 280 280 279
251 251 250 251 254 251 246 246 248 250 254 254 252 254 257 257 258 258 257 258 259 261 263 264 266 269 273 273 273 273 272 272 272 273 274 275 276 277 278 279 279 280 281 283 284 286 287 286 286 286 287 287 288 287 287 287 288 289 290 291 292 294 294 295 295 295 295 295 295 295 294 293 293 293 293 293 292 290 289 288 287 285 283 282 281 280
252 252 252 253 256 254 250 250 251 254 257 254 251 253 257 259 260 261 261 260 261 262 263 264 266 270 271 271 271 272 271 271 272 272 273 274 274 275 275 275 276 278 281 283 284 284 284 284 285 286 286 286 285 285 285 285 287 288 289 289 290 292 293 294 294 294 294 294 294 294 292 291 291 291 290 290 290 290 290 289 288 287 285 283 282 282
252 254 254 255 258 257 254 254 255 256 256 253 252 254 256 257 260 262 263 263 263 264 264 264 266 268 269 270 272 272 271 271 271 270 270 272 272 273 274 275 276 278 280 281 281 282 283 284 285 284 283 282 282 283 283 283 285 286 287 287 288 290 291 292 293 293 293 293 293 293 292 291 290 290 289 289 289 289 289 289 289 288 286 285 284 283
253 254 254 255 257 258 256 255 257 257 254 253 254 255 255 257 259 261 262 262 264 265 267 267 267 268 268 269 270 269 269 270 270 271 273 273 273 274 275 276 277 278 278 278 279 280 282 282 281 280 279 280 281 282 281 282 283 284 285 285 286 287 287 288 289 290 291 292 292 292 292 291 291 290 289 289 289 289 289 288 288 288 287 285 284 283
252 252 253 254 255 257 256 255 257 257 256 255 255 255 256 258 259 261 262 262 263 266 269 270 270 269 269 268 268 269 270 270 271 273 275 275 275 275 274 275 275 276 277 277 278 278 278 278 277 277 278 279 280 280 279 280 282 283 283 282 283 284 284 284 285 287 289 290 290 290 291 291 291 291 291 290 290 289 289 288 287 287 285 284 283 283
252 252 253 254 254 255 256 257 258 260 259 256 254 255 258 260 262 265 266 263 262 266 269 270 270 271 271 270 270 270 271 270 272 274 274 274 273 273 273 273 274 275 275 276 276 276 275 275 275 275 276 277 277 277 277 278 280 281 280 281 281 282 281 281 283 285 286 286 287 288 289 290 291 292 292 291 291 290 289 288 287 285 284 283 282 282
255 255 255 257 258 257 259 260 260 261 258 254 254 256 259 263 265 268 269 265 262 266 269 271 272 271 270 270 270 270 270 270 272 274 272 270 270 270 271 271 272 273 274 275 275 275 275 275 275 275 276 276 275 275 276 277 278 278 279 279 280 280 280 280 281 282 283 284 285 287 288 290 290 291 291 291 291 290 289 288 287 285 284 283 283 283
257 257 258 259 259 259 260 261 261 262 258 254 254 255 258 262 264 267 269 266 263 266 269 269 270 269 268 269 270 269 269 270 272 271 268 266 267 268 269 270 272 274 275 275 275 275 275 275 276 276 276 276 275 275 276 276 276 277 278 280 280 280 279 279 279 280 281 282 284 285 287 288 289 289 290 290 290 290 289 287 286 285 284 283 283 284
258 259 258 258 259 259 259 259 261 263 261 257 257 257 259 263 264 266 268 267 264 266 267 267 269 270 270 270 270 268 268 269 269 266 264 265 266 267 269 271 273 274 275 275 275 275 275 276 277 278 278 278 277 277 277 276 276 278 280 282 282 281 279 279 279 279 280 281 283 284 285 286 287 288 288 289 289 288 287 287 286 285 285 284 285 285
256 256 257 258 259 259 259 259 261 262 262 261 262 263 265 266 266 266 268 269 268 268 269 268 270 271 271 269 268 268 268 268 267 265 264 265 266 267 269 271 273 275 275 275 276 276 277 278 279 280 280 279 278 277 277 277 277 279 281 282 281 281 280 280 280 280 280 281 282 283 283 284 285 286 287 287 287 286 286 285 285 285 285 285 285 286
252 252 252 253 254 255 257 258 259 261 264 265 265 265 265 265 267 270 272 272 270 269 268 268 268 268 268 268 268 268 267 267 267 266 266 266 267 268 270 271 273 274 275 276 276 277 277 278 279 280 279 278 277 277 277 277 278 278 279 279 279 280 280 280 280 280 281 281 282 282 283 284 285 286 287 287 287 286 285 285 285 285 285 285 286 287
247 248 248 248 250 251 252 253 255 261 267 266 264 263 262 263 266 268 268 267 266 266 265 265 264 264 265 266 267 267 267 266 266 265 265 266 267 268 269 270 271 272 273 273 273 274 274 274 275 276 276 276 275 276 276 276 276 276 277 277 278 279 280 280 280 280 281 281 281 282 283 285 287 288 288 288 287 286 286 286 285 286 286 286 286 287
239 241 245 249 249 248 247 248 254 261 263 260 258 259 260 260 261 259 258 259 261 262 263 263 263 263 264 265 265 266 265 265 264 263 263 263 264 265 266 267 268 268 268 268 269 269 269 270 271 272 273 273 273 274 274 275 275 275 276 277 278 279 280 280 280 280 280 279 280 281 283 285 287 288 288 288 287 286 286 285 285 284 284 285 285 286
239 240 244 248 247 245 245 247 250 252 253 252 253 254 255 256 256 256 257 257 257 258 259 261 261 262 262 263 263 262 261 261 261 261 261 260 261 262 263 264 265 265 265 265 266 266 267 267 268 269 270 271 272 272 273 274 274 275 275 276 277 279 280 280 280 279 279 278 279 280 283 285 286 287 288 288 287 287 287 286 285 285 285 285 285 285
243 242 244 245 245 245 245 246 247 247 247 247 247 247 248 250 251 252 253 253 254 255 256 256 257 258 259 259 259 259 259 259 259 259 259 259 259 260 261 262 262 263 263 264 264 265 265 265 266 267 268 269 270 271 272 273 273 274 275 276 278 279 279 280 280 279 279 280 281 283 285 286 286 287 287 287 287 287 286 286 286 286 286 286 285 285
248 246 247 248 249 248 247 245 246 247 246 245 244 244 246 248 249 249 250 251 252 253 253 253 253 254 254 256 256 256 256 256 257 257 257 257 257 258 258 259 259 260 262 263 263 264 265 266 266 267 268 269 270 272 272 273 274 275 276 277 279 280 280 281 281 282 283 284 285 285 286 286 286 286 286 286 286 285 285 285 285 285 285 285 284 284
251 250 251 252 253 253 251 249 248 249 249 248 248 248 249 250 251 251 252 253 254 254 255 255 254 254 255 256 257 257 256 255 256 256 256 257 257 258 259 260 261 261 263 265 265 266 267 269 270 270 271 272 273 274 274 275 276 277 278 279 280 281 282 283 283 284 285 285 285 285 285 285 285 285 284 284 284 283 283 283 283 283 283 282 281 282
250 251 252 253 254 255 255 254 253 254 254 253 252 253 253 254 255 256 257 258 259 260 261 261 261 261 262 262 262 261 260 259 260 261 260 260 261 263 264 266 266 267 268 270 271 271 271 272 273 274 274 275 276 276 277 277 278 279 279 280 281 281 282 283 283 283 284 284 284 284 284 284 284 283 283 282 282 282 282 282 281 280 279 279 280 283
247 248 249 251 252 253 254 255 255 256 257 257 257 257 257 258 260 262 263 263 264 265 266 267 267 267 267 266 266 266 265 265 266 267 267 266 266 268 269 270 271 272 273 274 275 276 276 276 275 275 276 276 277 277 278 279 280 280 281 281 282 282 282 282 283 283 283 283 283 283 283 283 282 282 282 282 282 282 281 280 278 277 277 279 282 286
250 249 249 250 251 252 253 254 255 256 257 258 259 261 262 263 264 265 266 266 267 267 268 268 268 269 269 270 270 270 270 270 270 271 271 271 271 273 274 275 276 277 277 278 278 279 279 279 278 278 278 278 278 279 279 280 280 281 281 281 282 282 283 283 283 283 283 283 282 281 281 281 281 281 281 281 281 280 279 277 276 277 279 282 285 288
Height
5827 5829 5831 5833 5835 5837 5839 5840 5841 5844 5847 5848 5850 5851 5852 5854 5855 5856 5858 5859 5859 5860 5861 5862 5863 5865 5866 5867 5868 5868 5868 5869 5870 5870 5870 5869 5869 5868 5867 5867 5867 5867 5867 5866 5865 5864 5863 5862 5861 5861 5860 5859 5858 5857 5856 5855 5854 5853 5852 5851 5850 5849 5849 5848 5847 5846 5845 5844 5843 5842 5840 5839 5838 5837 5836 5834 5833 5832 5830 5828 5826 5824 5823 5822 5820 5818
5824 5827 5829 5830 5832 5834 5836 5838 5840 5843 5844 5845 5847 5848 5850 5851 5852 5854 5856 5856 5856 5857 5859 5859 5860 5862 5865 5865 5865 5866 5866 5867 5868 5867 5868 5868 5867 5867 5866 5865 5864 5864 5865 5864 5863 5862 5861 5859 5859 5858 5857 5856 5855 5854 5853 5853 5852 5851 5850 5849 5848 5847 5847 5846 5845 5844 5843 5842 5840 5839 5838 5837 5835 5834 5833 5831 5830 5828 5827 5825 5823 5821 5820 5818 5816 5815
5821 5824 5825 5828 5830 5832 5834 5836 5838 5839 5841 5843 5844 5846 5847 5849 5849 5851 5852 5853 5854 5854 5856 5857 5856 5859 5862 5862 5863 5863 5863 5865 5865 5865 5866 5866 5865 5865 5864 5864 5863 5862 5862 5861 5861 5860 5859 5857 5856 5855 5854 5853 5852 5852 5851 5850 5849 5848 5848 5847 5846 5845 5844 5843 5842 5841 5840 5839 5838 5837 5835 5834 5832 5831 5829 5828 5826 5825 5823 5821 5819 5817 5816 5815 5813 5811
5819 5821 5823 5825 5828 5829 5831 5833 5834 5836 5839 5840 5841 5843 5845 5846 5846 5847 5849 5850 5851 5851 5852 5853 5853 5856 5859 5860 5860 5861 5861 5862 5863 5863 5863 5864 5863 5862 5861 5861 5860 5860 5860 5859 5858 5857 5856 5855 5854 5853 5852 5850 5850 5849 5848 5847 5846 5846 5845 5844 5843 5842 5841 5840 5839 5838 5837 5836 5835 5834 5832 5831 5829 5828 5826 5824 5823 5821 5819 5817 5816 5814 5812 5811 5809 5807
5816 5818 5820 5823 5824 5826 5827 5829 5832 5834 5836 5837 5839 5840 5842 5842 5843 5845 5846 5846 5847 5848 5849 5850 5850 5851 5855 5857 5858 5859 5860 5860 5860 5860 5861 5862 5861 5860 5859 5858 5857 5857 5857 5857 5856 5854 5853 5852 5852 5850 5849 5848 5847 5846 5845 5844 5843 5843 5842 5841 5840 5839 5838 5837 5836 5835 5834 5833 5832 5830 5829 5827 5826 5824 5822 5821 5819 5817 5815 5814 5812 5810 5809 5807 5806 5804
5812 5815 5817 5819 5822 5823 5824 5827 5829 5831 5833 5834 5836 5837 5838 5839 5841 5842 5842 5842 5843 5845 5846 5847 5846 5846 5850 5853 5855 5857 5858 5857 5857 5857 5859 5859 5859 5858 5857 5856 5855 5854 5853 5854 5853 5852 5850 5850 5849 5848 5847 5845 5844 5843 5842 5841 5840 5839 5839 5838 5837 5836 5835 5834 5833 5832 5831 5830 5829 5827 5825 5824 5822 5820 5818 5817 5815 5813 5812 5810 5808 5806 5805 5803 5802 5800
5810 5812 5815 5817 5819 5820 5822 5824 5826 5828 5829 5830 5832 5834 5835 5836 5837 5838 5839 5839 5840 5841 5843 5845 5843 5840 5844 5850 5852 5854 5855 5855 5855 5855 5856 5857 5857 5857 5855 5853 5852 5851 5850 5850 5851 5850 5848 5847 5846 5845 5844 5843 5842 5841 5839 5838 5837 5836 5835 5835 5834 5833 5832 5831 5829 5828 5827 5826 5825 5823 5821 5820 5818 5816 5814 5812 5811 5809 5808 5806 5804 5803 5801 5800 5798 5797
5807 5810 5812 5815 5816 5817 5818 5820 5822 5824 5825 5826 5828 5830 5832 5833 5833 5834 5835 5836 5837 5838 5840 5842 5841 5837 5837 5844 5849 5851 5851 5851 5851 5853 5854 5854 5854 5854 5853 5851 5850 5849 5848 5847 5847 5847 5845 5844 5843 5842 5841 5840 5839 5838 5836 5835 5834 5832 5831 5831 5830 5829 5828 5827 5826 5825 5824 5822 5821 5819 5817 5815 5814 5812 5810 5808 5807 5805 5804 5802 5800 5799 5797 5796 5794 5793
5804 5806 5808 5810 5812 5813 5814 5816 5818 5820 5821 5823 5825 5826 5828 5829 5830 5830 5832 5833 5834 5835 5836 5837 5839 5836 5833 5838 5844 5846 5847 5847 5848 5850 5850 5851 5851 5851 5850 5848 5847 5847 5846 5844 5843 5842 5842 5841 5840 5839 5838 5836 5835 5834 5833 5832 5830 5829 5828 5827 5827 5826 5825 5824 5823 5821 5820 5818 5817 5815 5813 5811 5809 5808 5806 5804 5802 5801 5800 5798 5796 5795 5793 5792 5791 5789
5800 5802 5804 5807 5808 5809 5811 5813 5814 5816 5817 5819 5821 5822 5824 5825 5826 5827 5828 5830 5830 5831 5832 5833 5835 5834 5832 5834 5838 5838 5840 5843 5844 5845 5846 5846 5847 5846 5846 5845 5844 5844 5843 5840 5839 5839 5839 5838 5837 5836 5834 5833 5832 5831 5829 5828 5827 5826 5825 5824 5823 5822 5821 5820 5819 5818 5816 5815 5813 5811 5809 5807 5805 5804 5802 5800 5798 5797 5795 5794 5792 5791 5789 5788 5787 5785
5796 5798 5800 5803 5804 5806 5808 5809 5811 5812 5814 5816 5817 5818 5820 5821 5823 5823 5824 5826 5826 5827 5829 5829 5831 5833 5831 5831 5833 5833 5835 5837 5839 5840 5840 5840 5840 5840 5841 5841 5840 5840 5838 5836 5835 5835 5835 5834 5833 5832 5831 5830 5829 5827 5826 5825 5824 5822 5821 5820 5819 5819 5818 5817 5815 5814 5812 5811 5809 5807 5805 5803 5801 5799 5797 5796 5794 5792 5791 5789 5788 5786 5785 5784 5782 5781
5792 5794 5797 5799 5801 5803 5804 5806 5807 5808 5810 5812 5813 5814 5815 5816 5818 5819 5820 5822 5822 5823 5825 5825 5827 5829 5829 5830 5830 5829 5830 5833 5833 5833 5834 5834 5832 5833 5834 5835 5834 5834 5833 5831 5830 5831 5830 5830 5829 5828 5827 5826 5825 5824 5823 5821 5820 5818 5817 5816 5816 5815 5814 5813 5811 5810 5808 5807 5805 5803 5801 5799 5797 5795 5793 5791 5790 5788 5787 5785 5784 5782 5781 5780 5778 5777
5789 5791 5793 5795 5797 5799 5800 5802 5803 5804 5806 5808 5809 5810 5811 5812 5814 5815 5816 5817 5817 5820 5821 5821 5822 5824 5826 5829 5829 5825 5826 5829 5830 5828 5828 5827 5826 5826 5828 5828 5828 5827 5826 5825 5825 5825 5825 5824 5824 5824 5823 5822 5821 5820 5819 5818 5816 5814 5813 5813 5812 5811 5810 5809 5807 5806 5804 5802 5800 5798 5796 5794 5792 5790 5788 5786 5785 5784 5783 5781 5779 5778 5777 5776 5775 5773
5784 5786 5788 5790 5792 5794 5796 5798 5799 5801 5802 5803 5805 5805 5806 5808 5808 5809 5811 5811 5813 5816 5817 5816 5817 5819 5823 5826 5827 5825 5825 5825 5825 5824 5822 5822 5821 5822 5824 5824 5823 5822 5820 5820 5820 5820 5820 5819 5819 5819 5819 5818 5816 5815 5815 5814 5812 5810 5810 5809 5808 5807 5806 5804 5803 5801 5799 5798 5796 5793 5791 5789 5787 5785 5784 5782 5781 5780 5778 5776 5775 5774 5773 5772 5771 5770
5779 5781 5784 5786 5788 5790 5792 5794 5795 5796 5798 5799 5800 5800 5801 5804 5804 5804 5805 5806 5808 5811 5812 5813 5814 5815 5819 5822 5823 5824 5825 5823 5821 5820 5819 5819 5817 5817 5818 5818 5819 5818 5816 5815 5816 5816 5815 5814 5814 5814 5814 5813 5812 5811 5811 5809 5808 5806 5806 5805 5804 5803 5802 5800 5798 5797 5795 5793 5791 5788 5786 5784 5782 5781 5779 5778 5776 5775 5773 5772 5771 5770 5769 5768 5767 5766
5776 5777 5780 5782 5784 5786 5787 5788 5790 5791 5793 5795 5795 5795 5798 5801 5800 5799 5800 5802 5803 5804 5806 5809 5810 5813 5816 5817 5819 5820 5821 5820 5818 5817 5817 5817 5815 5814 5813 5813 5813 5813 5811 5811 5811 5811 5810 5810 5810 5809 5809 5808 5807 5806 5806 5805 5803 5802 5801 5800 5799 5798 5797 5795 5793 5792 5790 5788 5786 5784 5782 5780 5778 5776 5775 5774 5772 5771 5769 5768 5767 5766 5765 5764 5763 5762
5771 5773 5775 5778 5780 5782 5783 5783 5785 5786 5788 5790 5790 5791 5795 5796 5795 5795 5796 5797 5797 5797 5801 5805 5806 5810 5813 5814 5816 5817 5816 5815 5814 5814 5813 5812 5811 5811 5810 5809 5808 5807 5807 5806 5806 5805 5805 5805 5805 5805 5803 5803 5802 5802 5801 5800 5798 5797 5796 5796 5795 5794 5793 5791 5788 5787 5784 5782 5780 5779 5777 5775 5774 5772 5771 5769 5768 5766 5765 5763 5762 5762 5761 5760 5759 5758
5766 5768 5770 5772 5774 5776 5778 5778 5779 5781 5783 5785 5786 5788 5790 5790 5790 5790 5791 5792 5793 5792 5796 5800 5802 5806 5809 5810 5812 5813 5812 5811 5811 5809 5808 5807 5806 5806 5807 5806 5804 5803 5802 5801 5800 5800 5800 5800 5800 5800 5799 5798 5798 5797 5796 5794 5794 5793 5792 5791 5790 5789 5788 5785 5783 5781 5779 5777 5775 5773 5772 5770 5769 5767 5766 5764 5763 5761 5760 5759 5758 5757 5756 5756 5755 5754
5760 5762 5764 5767 5769 5771 5773 5773 5774 5777 5779 5780 5782 5784 5785 5785 5786 5787 5786 5788 5789 5788 5791 5796 5798 5799 5804 5807 5808 5808 5808 5808 5807 5806 5805 5804 5802 5802 5803 5802 5800 5799 5798 5796 5795 5795 5796 5796 5795 5795 5794 5793 5792 5792 5791 5790 5790 5789 5787 5786 5785 5784 5783 5780 5777 5775 5773 5771 5770 5768 5767 5765 5763 5762 5761 5759 5758 5757 5755 5754 5753 5753 5752 5751 5750 5750
5755 5756 5758 5761 5764 5765 5766 5768 5771 5774 5774 5775 5777 5779 5780 5782 5782 5782 5782 5783 5785 5784 5785 5790 5791 5794 5801 5804 5804 5804 5804 5803 5802 5802 5801 5799 5799 5800 5800 5798 5796 5794 5792 5791 5791 5791 5790 5791 5790 5790 5788 5787 5786 5785 5785 5785 5785 5784 5782 5780 5778 5777 5777 5775 5771 5769 5767 5765 5764 5763 5761 5760 5758 5757 5755 5754 5753 5752 5751 5750 5749 5748 5748 5747 5746 5745
5749 5750 5752 5755 5757 5758 5761 5765 5768 5769 5769 5770 5772 5774 5776 5778 5777 5776 5777 5778 5779 5779 5780 5782 5783 5790 5799 5801 5799 5799 5798 5798 5797 5796 5795 5793 5794 5796 5796 5794 5792 5788 5787 5787 5787 5787 5786 5786 5785 5784 5782 5781 5780 5779 5779 5779 5779 5777 5775 5772 5770 5770 5770 5768 5764 5762 5761 5760 5759 5757 5756 5754 5753 5751 5750 5749 5748 5747 5746 5745 5744 5744 5743 5742 5741 5741
5744 5745 5747 5749 5750 5753 5757 5761 5762 5762 5763 5764 5766 5769 5771 5773 5772 5770 5770 5772 5773 5773 5775 5775 5775 5786 5797 5797 5796 5795 5793 5792 5791 5789 5789 5790 5790 5790 5789 5789 5787 5783 5782 5782 5782 5783 5782 5781 5780 5778 5777 5776 5775 5774 5774 5774 5773 5772 5769 5766 5763 5763 5763 5761 5758 5756 5755 5754 5753 5752 5750 5749 5748 5746 5745 5744 5743 5742 5741 5741 5740 5739 5739 5738 5737 5736
5739 5739 5740 5742 5745 5748 5750 5752 5754 5755 5757 5759 5761 5765 5767 5766 5765 5764 5763 5766 5767 5766 5770 5769 5767 5781 5794 5793 5791 5790 5787 5786 5784 5783 5785 5785 5785 5784 5782 5782 5780 5777 5778 5778 5777 5778 5777 5775 5773 5773 5773 5772 5770 5769 5768 5767 5767 5766 5764 5761 5758 5758 5757 5755 5753 5751 5750 5749 5748 5746 5745 5744 5743 5742 5741 5740 5739 5738 5737 5736 5735 5735 5734 5733 5733 5732
5732 5732 5734 5736 5738 5741 5742 5745 5748 5749 5752 5754 5756 5760 5760 5759 5759 5759 5758 5760 5758 5759 5766 5764 5760 5774 5788 5787 5785 5784 5781 5779 5779 5779 5780 5779 5779 5779 5778 5776 5773 5772 5773 5774 5772 5771 5770 5769 5768 5768 5768 5767 5765 5763 5762 5761 5760 5759 5758 5756 5754 5753 5752 5750 5749 5747 5746 5744 5743 5741 5740 5739 5738 5737 5736 5735 5734 5733 5732 5731 5731 5730 5730 5729 5728 5727
5725 5727 5729 5730 5730 5733 5736 5739 5742 5745 5747 5749 5752 5754 5754 5754 5754 5753 5754 5753 5750 5755 5762 5756 5753 5767 5780 5780 5778 5777 5774 5774 5774 5774 5774 5773 5772 5773 5772 5770 5768 5767 5769 5769 5766 5764 5762 5763 5763 5762 5762 5762 5761 5758 5756 5756 5755 5753 5752 5750 5749 5748 5747 5746 5744 5742 5741 5739 5738 5737 5735 5734 5733 5732 5731 5730 5730 5729 5728 5727 5727 5726 5725 5724 5724 5723
5719 5720 5722 5723 5723 5727 5731 5736 5739 5742 5742 5742 5745 5748 5748 5749 5748 5747 5748 5745 5744 5752 5755 5747 5747 5761 5772 5771 5769 5770 5769 5769 5769 5768 5768 5768 5767 5767 5765 5764 5763 5763 5763 5762 5760 5758 5757 5757 5757 5756 5756 5757 5756 5753 5751 5750 5750 5748 5747 5746 5744 5742 5741 5741 5740 5738 5736 5735 5733 5732 5731 5730 5729 5728 5727 5726 5725 5724 5724 5723 5722 5721 5720 5720 5719 5718
5712 5713 5715 5717 5718 5722 5728 5732 5734 5734 5734 5735 5739 5741 5740 5741 5741 5740 5739 5737 5741 5746 5744 5742 5745 5752 5761 5763 5761 5762 5764 5763 5763 5762 5761 5761 5762 5760 5759 5758 5758 5757 5756 5755 5754 5753 5753 5752 5751 5750 5750 5750 5749 5747 5746 5745 5745 5744 5742 5741 5739 5737 5736 5735 5734 5733 5731 5730 5729 5727 5726 5725 5724 5724 5723 5722 5721 5720 5719 5719 5718 5717 5716 5714 5714 5713
5705 5706 5710 5712 5714 5718 5724 5727 5725 5724 5726 5729 5731 5732 5733 5734 5734 5732 5729 5733 5740 5735 5731 5741 5745 5741 5749 5758 5755 5755 5756 5755 5756 5757 5754 5754 5754 5754 5754 5753 5751 5750 5749 5749 5748 5747 5748 5747 5746 5745 5744 5742 5741 5741 5741 5740 5740 5739 5737 5735 5734 5732 5731 5730 5729 5728 5726 5725 5724 5722 5722 5721 5720 5720 5719 5718 5717 5716 5715 5714 5713 5712 5711 5710 5709 5708
5699 5700 5705 5708 5708 5713 5718 5719 5718 5717 5719 5721 5722 5724 5726 5726 5726 5725 5725 5731 5734 5724 5723 5738 5740 5732 5740 5749 5747 5748 5750 5749 5751 5750 5747 5747 5746 5746 5746 5744 5743 5743 5742 5742 5742 5741 5741 5741 5740 5739 5737 5736 5735 5735 5735 5735 5734 5733 5731 5729 5728 5727 5725 5724 5723 5722 5721 5720 5719 5718 5717 5716 5716 5715 5714 5713 5712 5712 5711 5710 5708 5707 5706 5705 5704 5702
5692 5695 5701 5703 5702 5706 5711 5713 5713 5712 5712 5712 5713 5715 5719 5720 5720 5721 5722 5725 5725 5718 5719 5730 5730 5727 5736 5740 5739 5743 5745 5743 5744 5743 5741 5740 5739 5738 5738 5737 5736 5736 5735 5735 5735 5735 5735 5734 5733 5732 5731 5730 5729 5728 5729 5728 5727 5726 5725 5723 5722 5721 5719 5718 5717 5717 5716 5714 5714 5713 5712 5712 5711 5710 5709 5708 5707 5706 5705 5705 5703 5702 5701 5699 5698 5697
5686 5689 5695 5697 5694 5695 5703 5708 5708 5706 5705 5705 5705 5708 5712 5715 5715 5716 5717 5718 5717 5714 5717 5721 5720 5723 5733 5734 5733 5738 5739 5736 5735 5734 5732 5732 5732 5732 5732 5731 5730 5728 5728 5728 5728 5727 5728 5727 5726 5725 5725 5725 5724 5722 5722 5721 5720 5720 5719 5717 5716 5715 5714 5713 5712 5711 5710 5709 5708 5708 5707 5706 5705 5705 5704 5703 5702 5701 5700 5699 5697 5696 5695 5694 5692 5691
5680 5683 5688 5689 5684 5686 5698 5702 5699 5699 5698 5696 5699 5704 5707 5708 5708 5709 5709 5711 5711 5711 5713 5714 5712 5719 5729 5729 5726 5730 5729 5727 5727 5726 5724 5725 5726 5725 5726 5725 5723 5721 5722 5721 5720 5721 5721 5720 5719 5718 5718 5718 5718 5716 5715 5714 5714 5714 5713 5712 5710 5709 5708 5707 5706 5705 5705 5703 5703 5702 5702 5701 5700 5699 5698 5697 5696 5695 5694 5693 5692 5691 5689 5688 5686 5684
5673 5676 5681 5681 5676 5680 5692 5693 5691 5690 5685 5684 5694 5703 5704 5703 5702 5700 5700 5703 5707 5707 5706 5705 5707 5715 5722 5719 5718 5721 5720 5719 5721 5721 5719 5718 5719 5719 5719 5718 5716 5716 5717 5716 5715 5714 5714 5713 5713 5713 5712 5712 5710 5709 5708 5708 5708 5708 5707 5706 5705 5704 5703 5701 5701 5700 5699 5698 5697 5696 5696 5695 5694 5693 5692 5691 5690 5689 5688 5687 5686 5685 5683 5682 5680 5678
5668 5670 5673 5674 5671 5674 5682 5684 5681 5675 5670 5678 5694 5702 5700 5698 5695 5692 5693 5697 5699 5698 5697 5699 5703 5709 5713 5712 5712 5713 5712 5711 5712 5713 5713 5712 5712 5712 5711 5711 5710 5711 5711 5709 5708 5708 5707 5707 5707 5706 5706 5705 5704 5703 5703 5702 5702 5702 5701 5700 5699 5698 5697 5696 5695 5694 5693 5692 5692 5690 5689 5688 5688 5687 5685 5684 5683 5682 5682 5681 5680 5679 5677 5675 5673 5672
5662 5664 5665 5667 5665 5666 5672 5673 5666 5659 5665 5680 5691 5694 5693 5692 5689 5686 5687 5690 5692 5691 5690 5693 5697 5703 5706 5705 5704 5704 5703 5703 5704 5706 5707 5704 5704 5705 5704 5704 5704 5703 5703 5702 5702 5701 5701 5701 5701 5699 5698 5698 5697 5697 5697 5696 5696 5696 5695 5694 5693 5692 5691 5690 5689 5688 5687 5686 5686 5684 5683 5682 5681 5680 5679 5678 5677 5676 5675 5674 5673 5672 5670 5668 5666 5665
5655 5656 5657 5659 5658 5658 5662 5660 5654 5655 5666 5676 5682 5686 5688 5685 5682 5680 5679 5684 5689 5688 5686 5687 5690 5695 5697 5696 5695 5696 5696 5695 5698 5702 5700 5695 5695 5697 5696 5696 5695 5694 5695 5695 5695 5695 5694 5693 5693 5692 5691 5691 5691 5691 5690 5690 5690 5689 5689 5688 5686 5686 5685 5684 5684 5682 5680 5680 5679 5678 5676 5675 5674 5673 5672 5671 5670 5669 5668 5667 5666 5665 5663 5661 5659 5657
5647 5648 5650 5650 5650 5651 5652 5651 5651 5653 5659 5667 5676 5683 5682 5676 5675 5674 5670 5675 5685 5685 5681 5681 5683 5686 5687 5685 5687 5690 5688 5687 5692 5697 5693 5688 5689 5689 5686 5686 5686 5686 5687 5687 5687 5688 5687 5686 5686 5685 5685 5685 5684 5684 5684 5683 5683 5683 5682 5681 5680 5679 5679 5679 5678 5676 5674 5673 5672 5671 5670 5668 5667 5667 5665 5664 5663 5662 5661 5660 5658 5657 5655 5653 5652 5650
5639 5640 5643 5642 5642 5645 5645 5645 5646 5645 5649 5664 5675 5677 5673 5667 5668 5667 5659 5665 5680 5681 5675 5675 5677 5677 5676 5675 5679 5683 5679 5678 5686 5690 5685 5681 5682 5680 5678 5678 5678 5678 5679 5679 5680 5680 5679 5679 5679 5677 5678 5678 5677 5677 5677 5676 5676 5676 5675 5674 5673 5673 5673 5672 5671 5669 5668 5667 5666 5665 5664 5662 5661 5660 5659 5657 5657 5655 5654 5652 5650 5649 5648 5646 5645 5643
5630 5632 5635 5634 5634 5637 5638 5637 5638 5636 5646 5663 5669 5667 5664 5660 5661 5658 5649 5657 5676 5675 5668 5670 5668 5664 5666 5668 5672 5674 5671 5671 5680 5681 5674 5672 5673 5672 5671 5671 5670 5671 5672 5672 5673 5673 5672 5672 5672 5670 5670 5670 5669 5669 5670 5669 5669 5669 5668 5667 5666 5667 5666 5665 5664 5663 5662 5661 5660 5658 5657 5655 5654 5653 5651 5650 5649 5648 5646 5644 5643 5641 5640 5639 5637 5635
5622 5624 5626 5625 5626 5630 5630 5630 5630 5632 5644 5658 5660 5658 5656 5652 5652 5649 5643 5654 5669 5665 5661 5664 5658 5653 5660 5663 5663 5664 5664 5666 5671 5670 5664 5664 5666 5665 5665 5665 5664 5664 5665 5665 5665 5666 5665 5665 5664 5663 5663 5662 5662 5662 5662 5662 5662 5662 5660 5660 5660 5660 5659 5658 5657 5656 5655 5654 5653 5651 5650 5648 5647 5645 5644 5643 5642 5640 5638 5637 5635 5633 5632 5631 5629 5628
5615 5617 5618 5618 5620 5623 5623 5624 5624 5626 5639 5651 5652 5651 5648 5641 5639 5640 5642 5652 5658 5652 5652 5656 5649 5646 5652 5653 5653 5657 5658 5658 5660 5660 5657 5658 5659 5658 5659 5659 5658 5657 5657 5658 5658 5658 5658 5657 5657 5656 5655 5655 5654 5654 5654 5654 5655 5653 5652 5653 5653 5653 5652 5651 5651 5649 5648 5647 5646 5644 5643 5641 5640 5638 5637 5635 5634 5633 5631 5630 5628 5626 5625 5623 5622 5620
5608 5610 5610 5612 5615 5616 5617 5618 5616 5619 5635 5646 5644 5641 5639 5631 5630 5637 5641 5643 5643 5641 5643 5645 5641 5640 5641 5642 5646 5649 5649 5650 5651 5652 5651 5651 5651 5651 5651 5652 5652 5651 5650 5651 5651 5651 5651 5650 5649 5648 5648 5647 5647 5646 5646 5646 5646 5645 5645 5645 5645 5645 5644 5644 5642 5641 5640 5639 5637 5636 5635 5634 5632 5631 5629 5628 5627 5625 5624 5622 5621 5619 5617 5615 5614 5612
5601 5602 5602 5605 5609 5610 5610 5610 5608 5614 5631 5639 5634 5630 5629 5626 5629 5634 5632 5628 5629 5631 5632 5633 5634 5633 5632 5634 5638 5639 5641 5643 5643 5643 5644 5644 5643 5644 5643 5643 5645 5644 5644 5644 5643 5643 5643 5643 5642 5641 5640 5639 5639 5638 5637 5637 5637 5637 5637 5637 5637 5636 5636 5635 5633 5632 5631 5630 5629 5628 5627 5626 5625 5623 5622 5620 5618 5617 5616 5614 5613 5611 5609 5607 5605 5603
5592 5594 5595 5599 5603 5601 5600 5602 5606 5614 5624 5627 5624 5621 5620 5620 5622 5622 5619 5618 5620 5621 5622 5623 5625 5624 5624 5627 5630 5631 5633 5635 5633 5635 5637 5636 5636 5636 5635 5635 5636 5636 5636 5636 5635 5635 5635 5635 5635 5634 5633 5632 5631 5630 5629 5629 5629 5630 5630 5629 5628 5627 5627 5625 5624 5623 5622 5621 5620 5620 5619 5618 5616 5615 5613 5611 5609 5607 5606 5605 5603 5601 5599 5597 5595 5593
5586 5591 5593 5593 5594 5594 5594 5599 5605 5610 5613 5615 5615 5614 5611 5611 5613 5612 5611 5612 5613 5614 5616 5617 5616 5616 5617 5619 5621 5623 5624 5625 5626 5627 5627 5628 5629 5628 5628 5628 5628 5627 5628 5627 5627 5627 5627 5627 5627 5627 5625 5624 5623 5623 5622 5621 5621 5621 5621 5620 5619 5619 5618 5617 5616 5615 5614 5613 5612 5611 5610 5609 5607 5605 5603 5601 5599 5597 5596 5594 5592 5590 5589 5587 5585 5583
5580 5585 5585 5583 5584 5587 5589 5594 5599 5601 5603 5606 5608 5607 5605 5605 5606 5606 5605 5604 5605 5607 5609 5609 5608 5609 5609 5610 5613 5615 5616 5617 5619 5618 5618 5619 5620 5620 5620 5621 5620 5619 5619 5619 5618 5618 5618 5619 5619 5618 5618 5617 5615 5614 5614 5613 5613 5612 5612 5611 5610 5609 5609 5608 5607 5606 5605 5604 5603 5602 5600 5599 5597 5595 5593 5591 5589 5587 5585 5584 5582 5580 5579 5577 5575 5574
5572 5574 5575 5576 5577 5579 5582 5589 5593 5594 5594 5597 5599 5599 5598 5597 5597 5598 5599 5598 5598 5600 5600 5600 5601 5601 5602 5603 5605 5607 5609 5610 5610 5610 5610 5610 5611 5612 5612 5612 5612 5612 5611 5610 5610 5610 5609 5609 5609 5609 5609 5609 5607 5606 5605 5605 5604 5604 5603 5602 5601 5600 5599 5599 5598 5597 5595 5594 5593 5591 5589 5588 5586 5585 5583 5581 5579 5578 5576 5574 5573 5571 5569 5567 5566 5564
5564 5566 5567 5569 5569 5570 5575 5582 5585 5583 5584 5588 5591 5590 5589 5588 5589 5591 5592 5591 5591 5592 5592 5592 5593 5594 5595 5597 5597 5598 5601 5602 5601 5601 5602 5602 5603 5604 5603 5603 5604 5605 5604 5603 5602 5602 5601 5601 5600 5599 5600 5600 5599 5597 5597 5596 5595 5594 5594 5593 5592 5590 5589 5588 5587 5586 5585 5583 5582 5580 5579 5577 5576 5574 5573 5571 5570 5568 5566 5565 5563 5561 5560 5558 5556 5555
5557 5558 5558 5559 5561 5564 5568 5573 5574 5573 5574 5579 5581 5580 5581 5582 5582 5583 5583 5583 5583 5584 5583 5584 5585 5586 5588 5589 5588 5589 5591 5592 5592 5592 5592 5594 5595 5595 5595 5595 5596 5596 5596 5595 5594 5594 5594 5593 5592 5591 5591 5591 5589 5588 5587 5587 5586 5585 5584 5583 5581 5580 5579 5578 5577 5575 5574 5572 5571 5569 5568 5567 5566 5564 5563 5562 5560 5559 5557 5555 5554 5552 5550 5548 5547 5545
5551 5550 5550 5551 5553 5557 5561 5564 5565 5564 5565 5570 5572 5572 5573 5575 5574 5573 5574 5575 5575 5575 5575 5575 5576 5576 5577 5578 5579 5579 5581 5583 5583 5582 5582 5585 5587 5586 5586 5586 5586 5587 5588 5586 5584 5584 5584 5583 5582 5582 5582 5581 5580 5578 5578 5577 5575 5574 5573 5572 5570 5569 5568 5567 5566 5564 5563 5561 5560 5559 5558 5557 5555 5554 5553 5552 5550 5549 5547 5546 5544 5542 5540 5539 5538 5536
5543 5543 5544 5544 5545 5549 5554 5556 5556 5556 5557 5561 5564 5564 5565 5566 5565 5564 5565 5566 5566 5566 5566 5566 5567 5567 5568 5569 5570 5570 5571 5573 5573 5572 5573 5576 5577 5576 5575 5575 5576 5577 5577 5576 5574 5574 5573 5572 5572 5572 5571 5571 5569 5568 5568 5567 5565 5564 5562 5561 5559 5558 5557 5556 5554 5553 5551 5550 5549 5548 5547 5546 5546 5545 5544 5542 5541 5539 5537 5536 5535 5533 5532 5530 5528 5527